Cozumel Airport, Mexico

7:43 AM EST on February 14, 2016 (GMT -0500)
Cozumel International

Weather History for MMCZ - September, 2012

Change the Weather History Date:

Thursday, September 20, 2012

  Actual Average Record
Temperature  
Mean Temperature 78 °F -  
Max Temperature 86 °F 88 °F 95 °F (2006)
Min Temperature 69 °F 76 °F 68 °F (2011)
Cooling Degree Days 14    
Growing Degree Days 28 (Base 50)    
Moisture  
Dew Point 69 °F    
Average Humidity 75    
Maximum Humidity 88    
Minimum Humidity 55    
Precipitation  
Precipitation 0.35 in - - ()
Sea Level Pressure  
Sea Level Pressure 29.93 in    
Wind  
Wind Speed 5 mph ()    
Max Wind Speed 17 mph    
Max Gust Speed -    
Visibility 6.8 miles    
Events Rain , Thunderstorm    
Averages and records for this station are not official NWS values.
T = Trace of Precipitation, MM = Missing Value Source: Averaged Metar Reports

Daily Weather History Graph

Daily Weather History Graph

Search for Another Location

Airport or City:

Trip Planner

Search our weather history database for the weather conditions in past years. The results will help you decide how hot, cold, wet, or windy it might be!

Date:

Astronomy

Sep. 20, 2012 Rise Set
Actual Time 6:36 AM CDT 6:45 PM CDT
Civil Twilight 6:14 AM CDT 7:07 PM CDT
Nautical Twilight 5:48 AM CDT 7:33 PM CDT
Astronomical Twilight 5:22 AM CDT 7:58 PM CDT
Moon 11:09 AM CDT (9/20) 10:31 PM CDT (9/20)
Length of Visible Light 12h 53m
Length of Day
12h 09m
Waxing Crescent, 27% of the Moon is Illuminated
Sep 20
Waxing Crescent
Sep 22
First Quarter
Sep 29
Full
Oct 8
Last Quarter
Oct 15
New

Hourly Weather History & Observations

Time (CDT) Temp. Heat Index Dew Point Humidity Pressure Visibility Wind Dir Wind Speed Gust Speed Precip Events Conditions
12:52 AM 71.6 °F - 66.2 °F 83% 29.95 in 7.0 mi Calm Calm - N/A   Scattered Clouds
1:47 AM 71.6 °F - 68.0 °F 88% 29.96 in 7.0 mi Calm Calm - N/A   Partly Cloudy
2:48 AM 71.6 °F - 68.0 °F 88% 29.95 in 6.0 mi ENE 17.3 mph - N/A   Mostly Cloudy
3:45 AM 73.4 °F - 68.0 °F 83% 29.97 in 7.0 mi ENE 5.8 mph - N/A   Scattered Clouds
4:51 AM 73.4 °F - 68.0 °F 83% 29.94 in 7.0 mi East 3.5 mph - N/A   Partly Cloudy
5:40 AM 73.4 °F - 66.2 °F 78% 29.96 in 7.0 mi East 3.5 mph - N/A   Scattered Clouds
6:45 AM 73.4 °F - 68.0 °F 83% 29.94 in 7.0 mi East 3.5 mph - N/A   Mostly Cloudy
7:40 AM 75.2 °F - 69.8 °F 83% 29.95 in 8.0 mi East 4.6 mph - N/A   Mostly Cloudy
8:44 AM 78.8 °F - 71.6 °F 78% 29.97 in 8.0 mi ESE 8.1 mph - N/A   Mostly Cloudy
9:43 AM 82.4 °F 86.3 °F 69.8 °F 66% 29.99 in 8.0 mi ESE 9.2 mph - N/A   Mostly Cloudy
10:41 AM 84.2 °F 87.3 °F 68.0 °F 58% 29.97 in 8.0 mi ESE 11.5 mph - N/A   Mostly Cloudy
11:40 AM 86.0 °F 89.4 °F 68.0 °F 55% 29.95 in 8.0 mi East 9.2 mph - N/A   Mostly Cloudy
12:44 PM 86.0 °F 89.4 °F 68.0 °F 55% 29.92 in 8.0 mi ENE 11.5 mph - N/A   Mostly Cloudy
1:40 PM 86.0 °F 90.4 °F 69.8 °F 58% 29.92 in 8.0 mi ENE 9.2 mph - N/A   Mostly Cloudy
2:40 PM 86.0 °F 90.4 °F 69.8 °F 58% 29.88 in 8.0 mi ENE 10.4 mph - N/A   Mostly Cloudy
3:45 PM 84.2 °F 88.4 °F 69.8 °F 62% 29.88 in 8.0 mi NE 10.4 mph - N/A   Mostly Cloudy
4:19 PM 78.8 °F - 68.0 °F 69% 29.88 in 2.0 mi NNE 8.1 mph - N/A Rain , Thunderstorm Thunderstorms and Rain
4:42 PM 78.8 °F - 69.8 °F 74% 29.88 in 6.0 mi Calm Calm - N/A   Mostly Cloudy
5:43 PM 77.0 °F - 71.6 °F 83% 29.89 in 6.0 mi Calm Calm - N/A   Mostly Cloudy
6:40 PM 75.2 °F - 69.8 °F 83% 29.86 in 6.0 mi Calm Calm - N/A   Mostly Cloudy
7:42 PM 75.2 °F - 69.8 °F 83% 29.90 in 6.0 mi SE 3.5 mph - N/A   Overcast
8:45 PM 73.4 °F - 68.0 °F 83% 29.92 in 6.0 mi Calm Calm - N/A   Mostly Cloudy
9:41 PM 73.4 °F - 68.0 °F 83% 29.96 in 6.0 mi ESE 3.5 mph - N/A   Mostly Cloudy
10:47 PM 71.6 °F - 64.4 °F 78% 29.95 in 6.0 mi East 8.1 mph - N/A   Mostly Cloudy
11:40 PM 69.8 °F - 66.2 °F 88% 29.95 in 6.0 mi East 11.5 mph - N/A   Overcast